| time (UTC) | temp F | wind direction | speed MPH | gust MPH | rain 1hr in | rain 24hr in | rain mn in | humidity % | barometer mb |
| 20260510224304 | 79 | 194 | 0.0 | 1.0 | 0.00 | 0.00 | 0.00 | 48 | 1014.8 |
| 20260510223804 | 79 | 194 | 0.0 | 1.0 | 0.00 | 0.00 | 0.00 | 48 | 1014.9 |
| 20260510223304 | 78 | 194 | 0.0 | 0.0 | 0.00 | 0.00 | 0.00 | 50 | 1014.9 |
| 20260510221305 | 80 | 194 | 1.0 | 1.0 | 0.00 | 0.00 | 0.00 | 45 | 1014.8 |
| 20260510220804 | 80 | 194 | 0.0 | 2.0 | 0.00 | 0.00 | 0.00 | 44 | 1014.9 |
| 20260510220308 | 80 | 195 | 0.0 | 3.0 | 0.00 | 0.00 | 0.00 | 44 | 1014.8 |
| 20260510214304 | 80 | 192 | 1.0 | 3.0 | 0.00 | 0.00 | 0.00 | 46 | 1014.8 |
| 20260510213804 | 81 | 165 | 0.0 | 0.0 | 0.00 | 0.00 | 0.00 | 45 | 1014.8 |
| 20260510213303 | 81 | 165 | 1.0 | 3.0 | 0.00 | 0.00 | 0.00 | 41 | 1014.8 |
| 20260510211803 | 81 | 232 | 0.0 | 1.0 | 0.00 | 0.00 | 0.00 | 48 | 1014.8 |
| 20260510211303 | 81 | 232 | 1.0 | 2.0 | 0.00 | 0.00 | 0.00 | 45 | 1014.9 |
| 20260510210804 | 80 | 199 | 0.0 | 1.0 | 0.00 | 0.00 | 0.00 | 48 | 1014.9 |
| 20260510210303 | 81 | 199 | 1.0 | 2.0 | 0.00 | 0.00 | 0.00 | 44 | 1014.9 |
| 20260510204803 | 81 | 315 | 0.0 | 2.0 | 0.00 | 0.00 | 0.00 | 46 | 1014.8 |
| 20260510204303 | 82 | 194 | 2.0 | 3.0 | 0.00 | 0.00 | 0.00 | 42 | 1014.9 |
| 20260510203303 | 82 | 64 | 0.0 | 2.0 | 0.00 | 0.00 | 0.00 | 42 | 1014.9 |
| 20260510201803 | 82 | 153 | 0.0 | 1.0 | 0.00 | 0.00 | 0.00 | 44 | 1015.1 |
| 20260510201303 | 83 | 154 | 0.0 | 1.0 | 0.00 | 0.00 | 0.00 | 43 | 1015.1 |
| 20260510200804 | 83 | 19 | 0.0 | 1.0 | 0.00 | 0.00 | 0.00 | 45 | 1015.0 |
| 20260510200303 | 83 | 34 | 1.0 | 2.0 | 0.00 | 0.00 | 0.00 | 40 | 1015.2 |
| 20260510194803 | 83 | 42 | 0.0 | 2.0 | 0.00 | 0.00 | 0.00 | 41 | 1015.3 |
| 20260510193803 | 82 | 234 | 1.0 | 2.0 | 0.00 | 0.00 | 0.00 | 47 | 1015.4 |
| 20260510191803 | 82 | 182 | 0.0 | 0.0 | 0.00 | 0.00 | 0.00 | 49 | 1015.5 |
| 20260510190303 | 81 | 54 | 1.0 | 3.0 | 0.00 | 0.00 | 0.00 | 47 | 1015.6 |
| 20260510184803 | 81 | 225 | 0.0 | 1.0 | 0.00 | 0.00 | 0.00 | 49 | 1015.6 |
| 20260510183803 | 80 | 228 | 1.0 | 2.0 | 0.00 | 0.00 | 0.00 | 45 | 1015.7 |
| 20260510183303 | 81 | 349 | 1.0 | 2.0 | 0.00 | 0.00 | 0.00 | 48 | 1015.8 |
| 20260510180804 | 80 | 347 | 0.0 | 2.0 | 0.00 | 0.00 | 0.00 | 47 | 1016.0 |
| 20260510180303 | 80 | 43 | 0.0 | 5.0 | 0.00 | 0.00 | 0.00 | 52 | 1016.0 |
| 20260510174803 | 79 | 188 | 2.0 | 3.0 | 0.00 | 0.00 | 0.00 | 46 | 1016.0 |
| 20260510174303 | 79 | 213 | 0.0 | 1.0 | 0.00 | 0.00 | 0.00 | 50 | 1016.0 |
| 20260510173803 | 78 | 213 | 0.0 | 1.0 | 0.00 | 0.00 | 0.00 | 49 | 1015.9 |
| 20260510173303 | 79 | 213 | 1.0 | 2.0 | 0.00 | 0.00 | 0.00 | 48 | 1016.1 |
| 20260510171804 | 79 | 193 | 1.0 | 1.0 | 0.00 | 0.00 | 0.00 | 50 | 1016.2 |
| 20260510171304 | 79 | 119 | 1.0 | 3.0 | 0.00 | 0.00 | 0.00 | 46 | 1016.3 |
| 20260510170303 | 79 | 192 | 0.0 | 2.0 | 0.00 | 0.00 | 0.00 | 52 | 1016.4 |
| 20260510164804 | 77 | 355 | 0.0 | 2.0 | 0.00 | 0.00 | 0.00 | 51 | 1016.6 |
| 20260510164303 | 77 | 289 | 1.0 | 2.0 | 0.00 | 0.00 | 0.00 | 51 | 1016.6 |
| 20260510163804 | 77 | 231 | 0.0 | 2.0 | 0.00 | 0.00 | 0.00 | 57 | 1016.7 |
| 20260510161803 | 75 | 224 | 0.0 | 1.0 | 0.00 | 0.00 | 0.00 | 60 | 1016.9 |
| 20260510161304 | 75 | 227 | 0.0 | 2.0 | 0.00 | 0.00 | 0.00 | 61 | 1016.8 |
| 20260510160804 | 74 | 208 | 2.0 | 3.0 | 0.00 | 0.00 | 0.00 | 55 | 1016.8 |
| 20260510160304 | 74 | 53 | 1.0 | 2.0 | 0.00 | 0.00 | 0.00 | 57 | 1016.9 |
| 20260510154804 | 73 | 282 | 0.0 | 1.0 | 0.00 | 0.00 | 0.00 | 66 | 1016.8 |
| 20260510154303 | 73 | 247 | 0.0 | 2.0 | 0.00 | 0.00 | 0.00 | 66 | 1016.9 |
| 20260510153304 | 72 | 94 | 1.0 | 2.0 | 0.00 | 0.00 | 0.00 | 66 | 1017.0 |
| 20260510151803 | 71 | 53 | 0.0 | 0.0 | 0.00 | 0.00 | 0.00 | 67 | 1017.2 |
| 20260510151303 | 71 | 53 | 0.0 | 1.0 | 0.00 | 0.00 | 0.00 | 67 | 1017.2 |
| 20260510150803 | 71 | 53 | 0.0 | 0.0 | 0.00 | 0.00 | 0.00 | 72 | 1017.2 |
| 20260510144803 | 70 | 186 | 0.0 | 2.0 | 0.00 | 0.00 | 0.00 | 74 | 1017.2 |
| 20260510144304 | 70 | 240 | 2.0 | 3.0 | 0.00 | 0.00 | 0.00 | 76 | 1017.3 |
| 20260510143804 | 69 | 145 | 0.0 | 1.0 | 0.00 | 0.00 | 0.00 | 80 | 1017.3 |
| 20260510143303 | 69 | 124 | 0.0 | 2.0 | 0.00 | 0.00 | 0.00 | 78 | 1017.3 |
| 20260510141803 | 68 | 263 | 0.0 | 1.0 | 0.00 | 0.00 | 0.00 | 82 | 1017.2 |
| 20260510141303 | 68 | 343 | 0.0 | 0.0 | 0.00 | 0.00 | 0.00 | 82 | 1017.1 |
| 20260510140304 | 67 | 82 | 0.0 | 2.0 | 0.00 | 0.00 | 0.00 | 84 | 1017.1 |
| 20260510134304 | 66 | 82 | 0.0 | 1.0 | 0.00 | 0.00 | 0.00 | 88 | 1016.8 |
| 20260510133803 | 65 | 88 | 0.0 | 1.0 | 0.00 | 0.00 | 0.00 | 91 | 1016.8 |
| 20260510133303 | 64 | 87 | 1.0 | 2.0 | 0.00 | 0.00 | 0.00 | 92 | 1016.8 |
| 20260510131804 | 63 | 102 | 0.0 | 1.0 | 0.00 | 0.00 | 0.00 | 94 | 1016.7 |
| 20260510131304 | 63 | 53 | 0.0 | 1.0 | 0.00 | 0.00 | 0.00 | 94 | 1016.7 |
| 20260510130804 | 63 | 47 | 0.0 | 0.0 | 0.00 | 0.00 | 0.00 | 94 | 1016.6 |
| 20260510130304 | 62 | 47 | 0.0 | 1.0 | 0.00 | 0.00 | 0.00 | 95 | 1016.6 |
| 20260510124804 | 62 | 5 | 0.0 | 0.0 | 0.00 | 0.00 | 0.00 | 95 | 1016.7 |
| 20260510124304 | 62 | 0 | 0.0 | 0.0 | 0.00 | 0.00 | 0.00 | 95 | 1016.6 |
| 20260510123803 | 62 | 0 | 0.0 | 0.0 | 0.00 | 0.00 | 0.00 | 95 | 1016.6 |
| 20260510123304 | 61 | 0 | 0.0 | 1.0 | 0.00 | 0.00 | 0.00 | 95 | 1016.5 |
| 20260510121806 | 61 | 0 | 0.0 | 0.0 | 0.00 | 0.00 | 0.00 | 95 | 1016.3 |
| 20260510121304 | 61 | 0 | 0.0 | 1.0 | 0.00 | 0.00 | 0.00 | 95 | 1016.3 |
| 20260510120803 | 61 | 10 | 0.0 | 0.0 | 0.00 | 0.00 | 0.00 | 95 | 1016.3 |
| 20260510120303 | 61 | 10 | 0.0 | 0.0 | 0.00 | 0.00 | 0.00 | 95 | 1016.2 |
| 20260510114804 | 61 | 10 | 0.0 | 0.0 | 0.00 | 0.00 | 0.00 | 95 | 1016.0 |
| 20260510114304 | 61 | 16 | 0.0 | 2.0 | 0.00 | 0.00 | 0.00 | 95 | 1015.8 |
| 20260510113304 | 60 | 59 | 0.0 | 2.0 | 0.00 | 0.00 | 0.00 | 95 | 1015.5 |
| 20260510111804 | 59 | 223 | 0.0 | 1.0 | 0.00 | 0.00 | 0.00 | 96 | 1015.3 |
| 20260510111304 | 58 | 223 | 0.0 | 1.0 | 0.00 | 0.00 | 0.00 | 96 | 1015.3 |
| 20260510110804 | 57 | 223 | 0.0 | 1.0 | 0.00 | 0.00 | 0.00 | 95 | 1015.3 |
| 20260510104803 | 57 | 223 | 0.0 | 0.0 | 0.00 | 0.00 | 0.00 | 95 | 1015.1 |
| 20260510104304 | 57 | 223 | 0.0 | 0.0 | 0.00 | 0.00 | 0.00 | 94 | 1015.0 |
| 20260510103804 | 57 | 223 | 0.0 | 0.0 | 0.00 | 0.00 | 0.00 | 94 | 1014.9 |
| 20260510103304 | 57 | 223 | 0.0 | 0.0 | 0.00 | 0.00 | 0.00 | 94 | 1015.0 |
| 20260510101804 | 57 | 223 | 0.0 | 0.0 | 0.00 | 0.00 | 0.00 | 94 | 1014.8 |
| 20260510101303 | 57 | 223 | 0.0 | 0.0 | 0.00 | 0.00 | 0.00 | 94 | 1014.8 |
| 20260510100804 | 57 | 223 | 0.0 | 0.0 | 0.00 | 0.00 | 0.00 | 94 | 1014.6 |
| 20260510100303 | 57 | 223 | 0.0 | 0.0 | 0.00 | 0.00 | 0.00 | 95 | 1014.6 |
| 20260510094804 | 58 | 223 | 0.0 | 0.0 | 0.00 | 0.00 | 0.00 | 94 | 1014.5 |
| 20260510094304 | 58 | 223 | 0.0 | 0.0 | 0.00 | 0.00 | 0.00 | 94 | 1014.5 |
| 20260510093304 | 58 | 223 | 0.0 | 0.0 | 0.00 | 0.00 | 0.00 | 94 | 1014.4 |
| 20260510091803 | 59 | 223 | 0.0 | 0.0 | 0.00 | 0.00 | 0.00 | 94 | 1014.3 |
| 20260510090803 | 59 | 223 | 0.0 | 0.0 | 0.00 | 0.00 | 0.00 | 94 | 1014.2 |
| 20260510090304 | 59 | 223 | 0.0 | 0.0 | 0.00 | 0.00 | 0.00 | 94 | 1014.2 |
| 20260510084803 | 59 | 223 | 0.0 | 0.0 | 0.00 | 0.00 | 0.00 | 94 | 1014.1 |
| 20260510084303 | 59 | 223 | 0.0 | 0.0 | 0.00 | 0.00 | 0.00 | 94 | 1014.1 |
| 20260510083804 | 59 | 223 | 0.0 | 0.0 | 0.00 | 0.00 | 0.00 | 94 | 1014.0 |
| 20260510081802 | 60 | 223 | 0.0 | 0.0 | 0.00 | 0.00 | 0.00 | 94 | 1013.8 |
| 20260510081303 | 60 | 223 | 0.0 | 0.0 | 0.00 | 0.00 | 0.00 | 94 | 1013.7 |
| 20260510080303 | 60 | 223 | 0.0 | 0.0 | 0.00 | 0.00 | 0.00 | 94 | 1013.7 |
| 20260510074803 | 60 | 223 | 0.0 | 0.0 | 0.00 | 0.00 | 0.00 | 94 | 1013.7 |
| 20260510074303 | 60 | 223 | 0.0 | 0.0 | 0.00 | 0.00 | 0.00 | 94 | 1013.8 |
| 20260510073802 | 60 | 223 | 0.0 | 0.0 | 0.00 | 0.00 | 0.00 | 94 | 1013.6 |
| 20260510073303 | 60 | 223 | 0.0 | 0.0 | 0.00 | 0.00 | 0.00 | 94 | 1013.5 |
| 20260510071802 | 60 | 223 | 0.0 | 0.0 | 0.00 | 0.00 | 0.00 | 94 | 1013.5 |
| 20260510071303 | 60 | 223 | 0.0 | 0.0 | 0.00 | 0.00 | 0.00 | 94 | 1013.5 |
| 20260510070802 | 60 | 223 | 0.0 | 0.0 | 0.00 | 0.00 | 0.00 | 94 | 1013.5 |
| 20260510070303 | 60 | 223 | 0.0 | 0.0 | 0.00 | 0.00 | 0.00 | 94 | 1013.5 |
| 20260510064803 | 60 | 223 | 0.0 | 0.0 | 0.00 | 0.00 | 0.00 | 93 | 1013.4 |
| 20260510064302 | 61 | 223 | 0.0 | 0.0 | 0.00 | 0.00 | 0.00 | 93 | 1013.4 |
| 20260510063803 | 61 | 223 | 0.0 | 0.0 | 0.00 | 0.00 | 0.00 | 93 | 1013.3 |
| 20260510063302 | 61 | 223 | 0.0 | 0.0 | 0.00 | 0.00 | 0.00 | 93 | 1013.5 |
| 20260510061803 | 61 | 223 | 0.0 | 0.0 | 0.00 | 0.00 | 0.00 | 93 | 1013.6 |
| 20260510061303 | 61 | 223 | 0.0 | 1.0 | 0.00 | 0.00 | 0.00 | 93 | 1013.6 |
| 20260510060803 | 61 | 223 | 0.0 | 0.0 | 0.00 | 0.00 | 0.00 | 93 | 1013.7 |
| 20260510060303 | 61 | 223 | 0.0 | 0.0 | 0.00 | 0.00 | 0.00 | 93 | 1013.5 |
| 20260510054802 | 61 | 223 | 0.0 | 0.0 | 0.00 | 0.00 | 0.00 | 93 | 1013.5 |
| 20260510054302 | 62 | 223 | 0.0 | 0.0 | 0.00 | 0.00 | 0.00 | 93 | 1013.5 |
| 20260510053304 | 62 | 223 | 0.0 | 0.0 | 0.00 | 0.00 | 0.00 | 93 | 1013.5 |
| 20260510051803 | 61 | 223 | 0.0 | 0.0 | 0.00 | 0.00 | 0.00 | 93 | 1013.9 |
| 20260510051302 | 61 | 223 | 0.0 | 0.0 | 0.00 | 0.00 | 0.00 | 93 | 1013.9 |
| 20260510050803 | 61 | 223 | 0.0 | 0.0 | 0.00 | 0.00 | 0.00 | 93 | 1013.9 |
| 20260510050303 | 61 | 223 | 0.0 | 0.0 | 0.00 | 0.00 | 0.00 | 93 | 1013.9 |
| 20260510044802 | 61 | 223 | 0.0 | 0.0 | 0.00 | 0.00 | 0.00 | 93 | 1014.1 |
| 20260510044303 | 62 | 223 | 0.0 | 0.0 | 0.00 | 0.00 | 0.00 | 93 | 1014.0 |
| 20260510043802 | 62 | 223 | 0.0 | 0.0 | 0.00 | 0.00 | 0.00 | 93 | 1014.0 |
| 20260510043303 | 62 | 223 | 0.0 | 0.0 | 0.00 | 0.00 | 0.00 | 93 | 1014.1 |
| 20260510041802 | 62 | 223 | 0.0 | 0.0 | 0.00 | 0.00 | 0.00 | 93 | 1014.1 |
| 20260510041303 | 62 | 223 | 0.0 | 0.0 | 0.00 | 0.00 | 0.00 | 93 | 1014.2 |
| 20260510040821 | 62 | 223 | 0.0 | 0.0 | 0.00 | 0.00 | 0.00 | 93 | 1014.2 |
| 20260510040302 | 62 | 223 | 0.0 | 0.0 | 0.00 | 0.00 | 0.00 | 93 | 1014.2 |
| 20260510034803 | 61 | 223 | 0.0 | 0.0 | 0.00 | 0.00 | 0.00 | 93 | 1014.1 |
| 20260510034303 | 61 | 223 | 0.0 | 0.0 | 0.00 | 0.00 | 0.00 | 93 | 1014.1 |
| 20260510033802 | 61 | 223 | 0.0 | 0.0 | 0.00 | 0.00 | 0.00 | 93 | 1014.1 |
| 20260510033303 | 61 | 223 | 0.0 | 0.0 | 0.00 | 0.00 | 0.00 | 93 | 1014.1 |
| 20260510031802 | 61 | 223 | 0.0 | 0.0 | 0.00 | 0.00 | 0.00 | 93 | 1014.2 |
| 20260510031303 | 61 | 223 | 0.0 | 0.0 | 0.00 | 0.00 | 0.00 | 93 | 1014.0 |
| 20260510030803 | 61 | 223 | 0.0 | 0.0 | 0.00 | 0.00 | 0.00 | 93 | 1014.1 |
| 20260510030303 | 62 | 223 | 0.0 | 0.0 | 0.00 | 0.00 | 0.00 | 93 | 1014.1 |
| 20260510024803 | 62 | 223 | 0.0 | 0.0 | 0.00 | 0.00 | 0.00 | 93 | 1013.9 |
| 20260510024303 | 62 | 223 | 0.0 | 0.0 | 0.00 | 0.00 | 0.00 | 93 | 1013.9 |
| 20260510023802 | 62 | 223 | 0.0 | 0.0 | 0.00 | 0.00 | 0.00 | 92 | 1013.9 |
| 20260510021303 | 62 | 223 | 0.0 | 0.0 | 0.00 | 0.00 | 0.00 | 92 | 1013.6 |
| 20260510020802 | 62 | 223 | 0.0 | 0.0 | 0.00 | 0.00 | 0.00 | 92 | 1013.6 |
| 20260510020303 | 62 | 223 | 0.0 | 0.0 | 0.00 | 0.00 | 0.00 | 92 | 1013.5 |
| 20260510014303 | 63 | 223 | 0.0 | 0.0 | 0.00 | 0.00 | 0.00 | 92 | 1013.4 |
| 20260510013803 | 63 | 223 | 0.0 | 0.0 | 0.00 | 0.00 | 0.00 | 92 | 1013.3 |
| 20260510013303 | 63 | 223 | 0.0 | 0.0 | 0.00 | 0.00 | 0.00 | 92 | 1013.2 |
| 20260510011803 | 63 | 223 | 0.0 | 0.0 | 0.00 | 0.00 | 0.00 | 92 | 1013.2 |
| 20260510011303 | 63 | 223 | 0.0 | 0.0 | 0.00 | 0.00 | 0.00 | 91 | 1013.1 |
| 20260510010303 | 63 | 223 | 0.0 | 0.0 | 0.00 | 0.00 | 0.00 | 91 | 1012.8 |
| 20260510004803 | 64 | 223 | 0.0 | 0.0 | 0.00 | 0.00 | 0.00 | 91 | 1012.7 |
| 20260510004303 | 64 | 223 | 0.0 | 0.0 | 0.00 | 0.00 | 0.00 | 90 | 1012.8 |
| 20260510003803 | 64 | 223 | 0.0 | 0.0 | 0.00 | 0.00 | 0.00 | 90 | 1012.7 |
| 20260510003303 | 64 | 223 | 0.0 | 0.0 | 0.00 | 0.00 | 0.00 | 90 | 1012.7 |
| 20260510001803 | 64 | 223 | 0.0 | 0.0 | 0.00 | 0.00 | 0.00 | 89 | 1012.6 |
| 20260510001303 | 64 | 223 | 0.0 | 0.0 | 0.00 | 0.00 | 0.00 | 89 | 1012.5 |
| 20260510000803 | 65 | 223 | 0.0 | 0.0 | 0.00 | 0.00 | 0.00 | 89 | 1012.5 |
| 20260510000304 | 65 | 223 | 0.0 | 0.0 | 0.00 | 0.00 | 0.00 | 89 | 1012.5 |
| 20260509234803 | 65 | 223 | 0.0 | 0.0 | 0.00 | 0.00 | 0.00 | 89 | 1012.5 |
| 20260509234303 | 65 | 223 | 0.0 | 0.0 | 0.00 | 0.00 | 0.00 | 88 | 1012.3 |
| 20260509233803 | 66 | 223 | 0.0 | 0.0 | 0.00 | 0.00 | 0.00 | 88 | 1012.1 |
| 20260509231803 | 66 | 223 | 0.0 | 0.0 | 0.00 | 0.00 | 0.00 | 87 | 1011.9 |
| 20260509231303 | 67 | 223 | 0.0 | 0.0 | 0.00 | 0.00 | 0.00 | 86 | 1011.8 |
| 20260509230803 | 67 | 223 | 0.0 | 0.0 | 0.00 | 0.00 | 0.00 | 85 | 1011.9 |
| 20260509224803 | 68 | 223 | 0.0 | 0.0 | 0.00 | 0.00 | 0.00 | 82 | 1011.8 |